Regional Weather Roundup
Issued by NWS Cleveland, OH

Home | Current Version | Previous Version | Graphics & Text | Print | Product List | Glossary On
Versions: 1 2 3 4 5 6 7 8 9 10 11 12 13 14 15 16 17 18 19 20 21 22 23 24 25 26 27 28 29 30 31 32 33 34 35 36 37 38 39 40 41 42 43 44 45 46 47 48 49 50
000
ASUS41 KCLE 311100
RWRCLE
OHIO REGIONAL WEATHER ROUNDUP
NATIONAL WEATHER SERVICE WILMINGTON, OH
700 AM EDT THU JUL 31 2014

NOTE: "FAIR" INDICATES FEW OR NO CLOUDS BELOW 12,000 FEET WITH NO
SIGNIFICANT WEATHER AND/OR OBSTRUCTIONS TO VISIBILITY.

OHZ001>008-015>018-024>027-034-035-043-044-311200-
   NORTHWEST OHIO

CITY           SKY/WX    TMP DP  RH WIND       PRES   REMARKS
DEFIANCE       PTCLDY    52  50  93 CALM      30.05S FOG
FINDLAY        PTCLDY    56  54  93 SW3       30.05R FOG
TOLEDO EXPRESS CLEAR     50  49  96 SW3       30.04R
TOLEDO METCALF CLEAR     54  52  93 SW6       30.05R
LIMA           FOG       61  59  93 S5        30.06S VSB 1/2
$$

OHZ009>014-019>023-028>033-038-089-311200-
   NORTHEAST OHIO

CITY           SKY/WX    TMP DP  RH WIND       PRES   REMARKS
CLE-HOPKINS    PTCLDY    58  57  97 SW6       30.05R FOG
CLE-LAKEFRONT  PTCLDY    63  57  81 SW9       30.02R
CUY CO. ARPT   MOCLDY    61  59  94 SW7       30.03
LORAIN-ELYRIA  CLEAR     59  55  87 MISG      30.04R FOG
ASHTABULA      MOCLDY    59  57  93 SW6       30.03R FOG
AKRON-CANTON   PTCLDY    57  55  93 S5        30.05R FOG
WOOSTER        NOT AVBL
MANSFIELD      CLEAR     59  59 100 SW7       30.07R
YOUNGSTOWN     CLOUDY    60  59  96 SW8       30.05R FOG
$$

OHZ042-051>053-060>062-070>072-077>081-311200-
  SOUTHWEST OHIO

CITY           SKY/WX    TMP DP  RH WIND       PRES   REMARKS
CINC-COVINGTON CLEAR     61  58  90 CALM      30.09R
CINC-LUNKEN    CLEAR     59  58  96 CALM      30.09R
HAMILTON       CLEAR     58  57  97 CALM      30.09R FOG
DAYTON         NOT AVBL
WRIGHT-PAT AFB CLEAR     59  59 100 S3        30.08R
DAYTON GENERAL CLEAR     60  59  96 CALM      30.08R FOG
WILMINGTON     CLEAR     56  55  97 SW5       30.08S FOG
$$

OHZ036-037-039>041-045>050-054>059-063>069-073>076-082>088-311200-
  CENTRAL AND SOUTHEAST OHIO

CITY           SKY/WX    TMP DP  RH WIND       PRES   REMARKS
COLUMBUS       CLEAR     62  58  86 S3        30.07S FOG
OSU AIRPORT    CLEAR     61  58  90 SW6       30.07R FOG
BOLTON FIELD   NOT AVBL
RICKENBACK AFB NOT AVBL
NEWARK         CLEAR     59  57  93 SW3       30.08R FOG
MARION         MOCLDY    60  58  92 S6        30.07R FOG
LANCASTER      CLEAR     60  57  89 S3        30.09R
ZANESVILLE     CLEAR     59  56  89 S3        30.08R
NEW PHILLY     CLOUDY    60  59  96 CALM      30.07R
$$


USA.gov is the U.S. government's official web portal to all federal, state and local government web resources and services.